カタログに戻る

STARLINK-6069

運用中通信VLEO
NORAD 56804·PAYLOAD·🇺🇸 United States

打ち上げ May 31, 2023 から Vandenberg Space Force Base

Loading…

次のパス (今後24時間)

TLE

最新Source: CelesTrak SupGP

元期: Sep 14, 2026, 21:34 UTC

1 56804C 23078AP  26257.89909722 -.00010113  00000+0 -84722-3 0  2571
2 56804  70.0018 207.3179 0003323 266.3673 215.0575 14.98346404    13

AllMySatでSTARLINK-6069をリアルタイム追跡

Download on the App Store